Starlink 5865

operational
NORAD ID: 57053 Int'l Des: 2023-088 Owner: SPXS Country: US Constellation: starlink
LEOCIRCULAR

Über Starlink 5865

Beschreibung wird geladen...

Live-Position

3D-Globus wird geladen...

Nächste Überflüge

Höhenverlauf

Altitude vs Time

uPlot chart will show altitude changes over time

Zweizeiliger Elementsatz

1 57053U 23088F 25353.88016817 -.00000199 00000-0 29212-6 0 9990
2 57053 43.0017 181.1917 0000385 332.3612 27.7210 15.02527763138369
Epoch: 19. Dez. 2025 • Age: 8 hours

Aktueller Status

Höhe 567.9 km
Geschwindigkeit 7.58 km/s
Subsatellitenpunkt -32.47°S, 25.42°W
Startdatum 22. Juni 2023
Alter 2.4 years
Typ internet

Technische Details

Klassifizierung Payload
Masse 305.00 kg
Trockenmasse 290.00 kg
Gesamtmasse 305.00 kg
Länge 0.20 m
Durchmesser 2.80 m
Spannweite 9.00 m
Form Box + pan
Hersteller SPXS
Bus-Typ Starlink
Phasenstatus In Orbit
Besitzer/Staat SPXS/US

Große Konstellationen

Loading constellations...